Weather History for Fremont, MI

Change the Weather History Date:

Thursday, July 18, 2013

  Actual Average (KMKG) Record (KMKG)
Temperature  
Mean Temperature 82 °F 71 °F  
Max Temperature 94 °F 81 °F 92 °F (2012)
Min Temperature 69 °F 62 °F 46 °F (1924)
Degree Days  
Heating Degree Days 0 0  
Month to date heating degree days 4  
Since 1 June heating degree days 70  
Since 1 July heating degree days 4  
Cooling Degree Days 16 7  
Month to date cooling degree days 117  
Year to date cooling degree days 251  
Since 1 June cooling degree days 222  
Growing Degree Days 32 (Base 50)    
Moisture  
Dew Point 69 °F    
Average Humidity 70    
Maximum Humidity 100    
Minimum Humidity 36    
Precipitation  
Precipitation 0.00 in 0.07 in 2.54 in (1959)
Month to date precipitation 1.29  
Year to date precipitation 16.11  
Snow  
Snow 0.00 in 0.00 in - ()
Month to date snowfall 0.0  
Since 1 June snowfall 0.0  
Since 1 July snowfall 0.0  
Snow Depth -    
Sea Level Pressure  
Sea Level Pressure 30.07 in    
Wind  
Wind Speed 4 mph (SSW)    
Max Wind Speed 16 mph    
Max Gust Speed 22 mph    
Visibility 9 miles    
Events      
T = Trace of Precipitation, MM = Missing Value Source: NWS Daily Summary

Daily Weather History Graph

Daily Weather History Graph

Search for Another Location

Airport:

Trip Planner

Search our weather history database for the weather conditions in past years. The results will help you decide how hot, cold, wet, or windy it might be!

Date:

Astronomy

Jul. 18, 2013 Rise Set
Actual Time 6:19 AM EDT 9:20 PM EDT
Civil Twilight 5:45 AM EDT 9:54 PM EDT
Nautical Twilight 5:02 AM EDT 10:37 PM EDT
Astronomical Twilight 4:10 AM EDT 11:28 PM EDT
Moon 5:15 PM EDT (7/18) 2:11 AM EDT (7/18)
Length of Visible Light 16h 08m
Length of Day
15h 00m
Waxing Gibbous, 77% of the Moon is Illuminated
Jul 18
Waxing Gibbous
Jul 22
Full
Jul 29
Last Quarter
Aug 6
New
Aug 14
First Quarter

Hourly Weather History & Observations

Time (EDT) Temp. Heat Index Dew Point Humidity Pressure Visibility Wind Dir Wind Speed Gust Speed Precip Events Conditions
12:14 AM 74.3 °F - 72.7 °F 95% 30.18 in 10.0 mi Calm Calm - N/A   Clear
12:35 AM 75.0 °F - 72.7 °F 92% 30.18 in 10.0 mi Calm Calm - N/A   Clear
12:54 AM 73.9 °F - 72.5 °F 95% 30.17 in 10.0 mi Calm Calm - N/A   Clear
1:15 AM 73.8 °F - 72.5 °F 96% 30.18 in 10.0 mi Calm Calm - N/A   Clear
1:34 AM 73.4 °F - 72.5 °F 97% 30.17 in 10.0 mi Calm Calm - N/A   Clear
1:55 AM 73.2 °F - 72.3 °F 97% 30.17 in 10.0 mi Calm Calm - N/A   Clear
2:14 AM 72.5 °F - 72.0 °F 98% 30.17 in 7.0 mi Calm Calm - N/A   Clear
2:35 AM 72.5 °F - 72.3 °F 99% 30.16 in 7.0 mi Calm Calm - N/A   Clear
2:55 AM 71.6 °F - 71.4 °F 99% 30.16 in 5.0 mi Calm Calm - N/A   Clear
3:14 AM 71.1 °F - 71.1 °F 100% 30.15 in 7.0 mi Calm Calm - N/A   Clear
3:35 AM 70.9 °F - 70.7 °F 99% 30.15 in 5.0 mi South 3.5 mph - N/A   Clear
3:54 AM 70.3 °F - 70.2 °F 99% 30.14 in 5.0 mi Calm Calm - N/A   Clear
4:15 AM 70.7 °F - 70.5 °F 99% 30.14 in 5.0 mi Calm Calm - N/A   Clear
4:34 AM 70.7 °F - 70.7 °F 100% 30.14 in 7.0 mi Calm Calm - N/A   Clear
4:55 AM 70.5 °F - 70.5 °F 100% 30.14 in 3.0 mi Calm Calm - N/A   Clear
5:15 AM 70.2 °F - 70.2 °F 100% 30.14 in 5.0 mi Calm Calm - N/A   Clear
5:35 AM 70.2 °F - 70.2 °F 100% 30.14 in 3.0 mi Calm Calm - N/A   Clear
5:54 AM 69.4 °F - 69.4 °F 100% 30.14 in 5.0 mi Calm Calm - N/A   Clear
6:15 AM 70.7 °F - 70.7 °F 100% 30.14 in 4.0 mi Calm Calm - N/A   Clear
6:34 AM 70.9 °F - 70.9 °F 100% 30.13 in 1.8 mi Calm Calm - N/A   Mist
6:55 AM 70.2 °F - 70.2 °F 100% 30.14 in 1.5 mi Calm Calm - N/A   Mist
7:15 AM 71.6 °F - 71.6 °F 100% 30.13 in 2.5 mi Calm Calm - N/A   Clear
7:34 AM 72.9 °F - 72.9 °F 100% 30.13 in 5.0 mi Calm Calm - N/A   Clear
7:55 AM 74.7 °F - 73.6 °F 96% 30.13 in 7.0 mi Calm Calm - N/A   Clear
8:14 AM 76.3 °F - 73.8 °F 92% 30.13 in 10.0 mi SSW 3.5 mph - N/A   Clear
8:35 AM 77.9 °F - 73.8 °F 87% 30.13 in 10.0 mi SW 3.5 mph - N/A   Clear
8:55 AM 79.2 °F - 73.8 °F 83% 30.12 in 10.0 mi Calm Calm - N/A   Clear
9:14 AM 80.6 °F 85.5 °F 73.9 °F 80% 30.12 in 10.0 mi SSW 3.5 mph - N/A   Clear
9:35 AM 82.2 °F 87.6 °F 72.9 °F 73% 30.12 in 10.0 mi SW 4.6 mph - N/A   Clear
9:54 AM 84.2 °F 90.6 °F 72.9 °F 69% 30.12 in 10.0 mi Calm Calm - N/A   Clear
10:15 AM 84.7 °F 91.0 °F 72.7 °F 67% 30.11 in 10.0 mi Calm Calm - N/A   Clear
10:34 AM 86.2 °F 92.6 °F 72.3 °F 63% 30.11 in 10.0 mi SSW 4.6 mph - N/A   Clear
10:55 AM 87.4 °F 93.5 °F 71.6 °F 59% 30.11 in 10.0 mi SW 3.5 mph - N/A   Clear
11:14 AM 88.9 °F 95.6 °F 71.8 °F 57% 30.11 in 10.0 mi SSW 5.8 mph - N/A   Clear
11:35 AM 89.8 °F 96.0 °F 70.9 °F 54% 30.11 in 10.0 mi SW 5.8 mph - N/A   Clear
11:55 AM 89.8 °F 94.6 °F 69.3 °F 51% 30.11 in 10.0 mi SW 6.9 mph - N/A   Clear
12:15 PM 91.8 °F 95.1 °F 66.9 °F 44% 30.10 in 10.0 mi SSW 6.9 mph - N/A   Mostly Cloudy
12:35 PM 92.1 °F 95.3 °F 66.7 °F 43% 30.09 in 10.0 mi SSW 9.2 mph - N/A   Scattered Clouds
12:54 PM 91.9 °F 94.5 °F 65.7 °F 42% 30.09 in 10.0 mi SW 6.9 mph - N/A   Scattered Clouds
1:15 PM 92.3 °F 94.7 °F 65.3 °F 41% 30.08 in 10.0 mi WSW 6.9 mph - N/A   Scattered Clouds
1:34 PM 94.6 °F 96.4 °F 64.2 °F 36% 30.08 in 10.0 mi SSW 12.7 mph 18.4 mph N/A   Mostly Cloudy
1:54 PM 93.2 °F 94.9 °F 64.4 °F 38% 30.07 in 10.0 mi SSW 12.7 mph 20.7 mph N/A   Scattered Clouds
2:15 PM 93.4 °F 95.6 °F 65.1 °F 39% 30.07 in 10.0 mi SSW 11.5 mph 17.3 mph N/A   Scattered Clouds
2:35 PM 91.9 °F 94.1 °F 64.9 °F 41% 30.06 in 10.0 mi SW 16.1 mph 20.7 mph N/A   Scattered Clouds
2:55 PM 92.7 °F 94.9 °F 65.3 °F 40% 30.05 in 10.0 mi SSW 15.0 mph 18.4 mph N/A   Scattered Clouds
3:14 PM 93.2 °F 95.8 °F 65.3 °F 40% 30.05 in 10.0 mi SSW 15.0 mph 20.7 mph N/A   Scattered Clouds
3:35 PM 91.9 °F 94.1 °F 64.9 °F 41% 30.05 in 10.0 mi South 15.0 mph 20.7 mph N/A   Scattered Clouds
3:54 PM 91.8 °F 93.8 °F 64.9 °F 41% 30.04 in 10.0 mi SSW 13.8 mph 21.9 mph N/A   Scattered Clouds
4:15 PM 91.8 °F 93.8 °F 65.1 °F 41% 30.03 in 10.0 mi SSW 13.8 mph 20.7 mph N/A   Scattered Clouds
4:34 PM 91.9 °F 94.5 °F 65.7 °F 42% 30.03 in 10.0 mi South 13.8 mph 20.7 mph N/A   Clear
4:55 PM 91.0 °F 93.0 °F 65.3 °F 42% 30.02 in 10.0 mi SSW 15.0 mph 20.7 mph N/A   Clear
5:15 PM 91.4 °F 93.2 °F 64.4 °F 41% 30.00 in 10.0 mi SSW 15.0 mph 19.6 mph N/A   Clear
5:34 PM 90.7 °F 92.8 °F 65.3 °F 43% 30.00 in 10.0 mi South 12.7 mph 19.6 mph N/A   Clear
5:55 PM 90.5 °F 92.9 °F 65.8 °F 44% 29.99 in 10.0 mi SSW 13.8 mph 19.6 mph N/A   Clear
6:14 PM 90.5 °F 93.3 °F 66.2 °F 45% 29.98 in 10.0 mi SSW 15.0 mph 18.4 mph N/A   Clear
6:35 PM 89.8 °F 92.5 °F 66.2 °F 46% 29.98 in 10.0 mi South 16.1 mph 21.9 mph N/A   Clear
6:54 PM 89.4 °F 92.3 °F 66.9 °F 47% 29.97 in 10.0 mi SSW 13.8 mph 19.6 mph N/A   Clear
7:15 PM 88.7 °F 91.9 °F 67.5 °F 49% 29.96 in 10.0 mi SSW 8.1 mph 16.1 mph N/A   Clear
7:34 PM 88.3 °F 91.6 °F 67.5 °F 50% 29.96 in 10.0 mi South 11.5 mph 16.1 mph N/A   Clear
7:55 PM 87.4 °F 90.5 °F 67.5 °F 51% 29.95 in 10.0 mi SSW 10.4 mph - N/A   Clear
8:15 PM 86.4 °F 89.7 °F 67.8 °F 54% 29.94 in 10.0 mi South 11.5 mph - N/A   Clear
8:34 PM 85.5 °F 88.2 °F 67.3 °F 54% 29.94 in 10.0 mi South 11.5 mph 17.3 mph N/A   Clear
8:55 PM 84.2 °F 87.1 °F 67.3 °F 57% 29.93 in 10.0 mi South 8.1 mph - N/A   Clear
9:14 PM 83.3 °F 86.2 °F 67.6 °F 59% 29.92 in 10.0 mi South 9.2 mph - N/A   Clear
9:34 PM 82.4 °F 85.4 °F 68.0 °F 62% 29.92 in 10.0 mi South 6.9 mph - N/A   Clear
9:55 PM 81.5 °F 84.6 °F 68.5 °F 65% 29.93 in 10.0 mi South 5.8 mph - N/A   Clear
10:14 PM 80.8 °F 83.8 °F 68.9 °F 67% 29.93 in 10.0 mi South 4.6 mph - N/A   Clear
10:35 PM 79.7 °F - 69.1 °F 70% 29.94 in 10.0 mi South 4.6 mph - N/A   Clear
10:55 PM 79.7 °F - 69.6 °F 71% 29.94 in 10.0 mi South 4.6 mph - N/A   Clear
11:15 PM 79.7 °F - 70.3 °F 73% 29.94 in 10.0 mi SSW 5.8 mph - N/A   Clear
11:35 PM 79.7 °F - 71.6 °F 76% 29.94 in 10.0 mi SSW 8.1 mph - N/A   Clear
11:54 PM 79.7 °F - 71.6 °F 76% 29.93 in 10.0 mi SSW 8.1 mph - N/A   Clear